"SCET";"TARGET";"ELECTRON_DENSITY";"ERROR_FLAG";"ELECTRON_DENSITY_ERROR";"FREQ_FCE";"MEASURED_VALUE";"MEASURED_ITEM";"FREQ_PLASMA";"FREQ_UPPER_HYBRID";"FREQ_R_EQUALS_ZERO";"FREQ_L_EQUALS_ZERO";"ORBIT_NUMBER";"SATURN_RADIUS";"SATURN_IAU_LONGITUDE";"SATURN_SLS4_S_LONGITUDE";"SATURN_SLS4_N_LONGITUDE";"SATURN_SLS5_S_LONGITUDE";"SATURN_SLS5_N_LONGITUDE";"SATURN_LOCAL_TIME";"SATURN_KRONOGRAPHIC_LATITUDE";"SATURN_MAGNETIC_LATITUDE";"SATURN_L";"SATURN_L_OFFSET";"SATURN_SOLAR_EQUATORIAL_X";"SATURN_SOLAR_EQUATORIAL_Y";"SATURN_SOLAR_EQUATORIAL_Z";"SATURN_ALTITUDE";"ENCELADUS_ENCOUNTER_NUMBER";"ENCELADUS_RADIUS";"ENCELADUS_COROTATIONAL_X";"ENCELADUS_COROTATIONAL_Y";"ENCELADUS_COROTATIONAL_Z";"ENCELADUS_TRUE_ANOMALY";"ENCELADUS_PERIAPSIS_TIME";"JUPITER_RADIUS";"JUPITER_SYSTEMIII_LONGITUDE";"JUPITER_MAGNETIC_LATITUDE";"JUPITER_MAGNETIC_LOCAL_TIME";"JUPITER_L";"IO_PHASE";"EARTH_RADIUS";"EARTH_MAGNETIC_LATITUDE";"EARTH_LOCAL_TIME";"EARTH_L"
"[UTC]";"[0=Saturn, 1=Enceladus, 2=Jupiter, 3=Earth]";"[cm-3]";"[0=automated, 1=manual]";"[normalized density error]";"[Hz]";"[Hz]";"[0=upper hybrid frequency, 1=plasma frequency cutoff]";"[Hz]";"[Hz]";"[Hz]";"[Hz}";"[0, A, B, C, 3, 4, ... , 292, 293]";"[Rs where 1Rs=60268km]";"[degrees]";"[degrees]";"[degrees]";"[degrees]";"[degrees]";"[hours]";"[degrees]";"[degrees where offset=2293km north]";"[Rs where 1Rs=60268km]";"[Rs where 1Rs=60268km and offset=2293km north]";"[Rs where 1Rs=60268km]";"[Rs where 1Rs=60268km]";"[Rs where 1Rs=60268km]";"[km where ellipsoid a,b=60268km and c=54364km]";"[E0, E1, E2, ... , E21, E22]";"[Renc where 1Renc=252.1km]";"[Renc where 1Renc=252.1km]";"[Renc where 1Renc=252.1km]";"[Renc where 1Renc=252.1km]";"[degrees]";"[UTC]";"[Rj where 1Rj=71492km]";"[degrees]";"[degrees using JRM09 model]";"[hours using JRM09 model]";"[Rj where 1Rj=71492km]";"[degrees]";"[Re where 1Re=6378.1366km]";"[degrees]";"[hours]";"[Re where 1Re=6378.1366km]"
2010-12-20T11:48:17.553Z;0;5.8650e+00;0;     0.135;   808.556;  21763.223; 0;  21748.197;  21763.223;  22156.232;  21347.678;142;   7.945; 101.143;;; 200.831; 124.655;  23.507;  -0.072;  -0.346;   7.945;   7.937;  -7.879;   1.022;  -0.010;;;;;;;;;;;;;;;;;;
2010-12-20T11:48:33.553Z;0;6.0550e+00;0;     0.168;   808.556;  22111.600; 0;  22096.811;  22111.600;  22504.787;  21696.230;142;   7.943; 101.277;;; 200.968; 124.789;  23.508;  -0.072;  -0.347;   7.943;   7.935;  -7.877;   1.020;  -0.010;;;;;;;;;;;;;;;;;;
2010-12-20T11:48:49.553Z;0;6.0080e+00;0;     0.121;   808.556;  22025.271; 0;  22010.426;  22025.271;  22418.416;  21609.859;142;   7.941; 101.412;;; 201.106; 124.923;  23.509;  -0.072;  -0.347;   7.941;   7.933;  -7.876;   1.017;  -0.010;;;;;;;;;;;;;;;;;;
2010-12-20T11:49:05.553Z;0;6.6570e+00;0;     0.084;   772.016;  23181.533; 0;  23168.674;  23181.533;  23557.898;  22785.881;142;   7.939; 101.546;;; 201.243; 125.056;  23.510;  -0.072;  -0.347;   7.939;   7.931;  -7.874;   1.015;  -0.010;;;;;;;;;;;;;;;;;;
2010-12-20T11:49:53.553Z;0;7.2720e+00;0;     0.073;   772.016;  24228.592; 0;  24216.289;  24228.592;  24605.373;  23833.357;142;   7.932; 101.950;;; 201.656; 125.458;  23.513;  -0.072;  -0.347;   7.932;   7.924;  -7.868;   1.007;  -0.010;;;;;;;;;;;;;;;;;;
2010-12-20T11:50:09.553Z;0;7.1740e+00;0;     0.074;   799.820;  24065.760; 0;  24052.465;  24065.760;  24455.699;  23655.879;142;   7.930; 102.085;;; 201.792; 125.592;  23.514;  -0.072;  -0.347;   7.930;   7.922;  -7.866;   1.005;  -0.010;;;;;;;;;;;;;;;;;;
2010-12-20T11:50:57.552Z;0;8.1640e+00;0;     0.202;   799.820;  25670.266; 0;  25657.803;  25670.266;  26060.828;  25261.008;142;   7.924; 102.488;;; 202.197; 125.998;  23.518;  -0.072;  -0.347;   7.924;   7.916;  -7.861;   0.998;  -0.010;;;;;;;;;;;;;;;;;;
2010-12-20T11:51:29.552Z;0;9.1870e+00;0;     0.190;   784.028;  27230.156; 0;  27218.867;  27230.156;  27613.703;  26829.676;142;   7.919; 102.757;;; 202.466; 126.268;  23.520;  -0.072;  -0.347;   7.919;   7.911;  -7.857;   0.993;  -0.010;;;;;;;;;;;;;;;;;;
2010-12-20T11:52:17.552Z;0;8.3000e+00;0;     0.205;   811.104;  25884.475; 0;  25871.764;  25884.475;  26280.494;  25469.391;142;   7.913; 103.161;;; 202.870; 126.675;  23.523;  -0.072;  -0.348;   7.913;   7.905;  -7.851;   0.986;  -0.010;;;;;;;;;;;;;;;;;;
2010-12-20T11:52:49.552Z;0;7.3850e+00;0;     0.109;   811.104;  24417.477; 0;  24404.002;  24417.477;  24812.922;  24001.818;142;   7.909; 103.429;;; 203.138; 126.946;  23.525;  -0.072;  -0.348;   7.909;   7.901;  -7.847;   0.981;  -0.010;;;;;;;;;;;;;;;;;;
2010-12-20T11:53:05.551Z;0;8.0060e+00;0;     0.107;   745.388;  25419.031; 0;  25408.100;  25419.031;  25783.527;  25038.139;142;   7.906; 103.564;;; 203.272; 127.082;  23.526;  -0.072;  -0.348;   7.906;   7.898;  -7.846;   0.978;  -0.010;;;;;;;;;;;;;;;;;;
2010-12-20T11:53:21.551Z;0;8.7950e+00;0;     0.180;   745.388;  26641.514; 0;  26631.084;  26641.514;  27006.387;  26260.998;142;   7.904; 103.698;;; 203.406; 127.218;  23.527;  -0.072;  -0.348;   7.904;   7.896;  -7.844;   0.976;  -0.010;;;;;;;;;;;;;;;;;;
2010-12-20T11:53:37.551Z;0;8.2140e+00;0;     0.213;   745.388;  25747.145; 0;  25736.354;  25747.145;  26111.744;  25366.357;142;   7.902; 103.833;;; 203.540; 127.354;  23.528;  -0.072;  -0.348;   7.902;   7.894;  -7.842;   0.974;  -0.010;;;;;;;;;;;;;;;;;;
2010-12-20T11:54:41.551Z;0;7.3450e+00;0;     0.291;   814.296;  24351.186; 0;  24337.566;  24351.186;  24748.121;  23933.824;142;   7.893; 104.370;;; 204.076; 127.898;  23.532;  -0.072;  -0.348;   7.893;   7.885;  -7.834;   0.964;  -0.010;;;;;;;;;;;;;;;;;;
2010-12-20T11:55:13.551Z;0;8.2970e+00;0;     0.202;   809.732;  25879.793; 0;  25867.123;  25879.793;  26275.156;  25465.424;142;   7.889; 104.639;;; 204.343; 128.170;  23.534;  -0.072;  -0.348;   7.889;   7.881;  -7.831;   0.959;  -0.010;;;;;;;;;;;;;;;;;;
2010-12-20T11:55:29.551Z;0;8.1590e+00;0;     0.195;   809.732;  25663.631; 0;  25650.854;  25663.631;  26058.914;  25249.182;142;   7.887; 104.773;;; 204.476; 128.306;  23.535;  -0.072;  -0.348;   7.887;   7.879;  -7.829;   0.957;  -0.010;;;;;;;;;;;;;;;;;;
2010-12-20T11:56:01.550Z;0;6.7180e+00;0;     0.193;   832.860;  23290.775; 0;  23275.879;  23290.775;  23696.035;  22863.174;142;   7.883; 105.042;;; 204.743; 128.579;  23.538;  -0.072;  -0.348;   7.883;   7.875;  -7.825;   0.952;  -0.010;;;;;;;;;;;;;;;;;;
2010-12-20T11:57:05.550Z;0;6.7810e+00;0;     0.219;   808.332;  23398.439; 0;  23384.473;  23398.439;  23792.131;  22983.799;142;   7.874; 105.579;;; 205.275; 129.126;  23.542;  -0.072;  -0.349;   7.874;   7.866;  -7.817;   0.942;  -0.010;;;;;;;;;;;;;;;;;;
2010-12-20T11:57:21.550Z;0;6.6550e+00;0;     0.198;   808.332;  23179.682; 0;  23165.584;  23179.682;  23573.275;  22764.943;142;   7.872; 105.714;;; 205.408; 129.262;  23.543;  -0.072;  -0.349;   7.872;   7.864;  -7.815;   0.940;  -0.010;;;;;;;;;;;;;;;;;;
2010-12-20T11:57:37.550Z;0;6.4120e+00;0;     0.110;   808.332;  22753.447; 0;  22739.084;  22753.447;  23146.842;  22338.510;142;   7.870; 105.848;;; 205.541; 129.399;  23.544;  -0.072;  -0.349;   7.870;   7.862;  -7.814;   0.937;  -0.010;;;;;;;;;;;;;;;;;;
2010-12-20T11:59:29.549Z;0;7.9830e+00;0;     0.196;   809.816;  25385.143; 0;  25372.223;  25385.143;  25780.361;  24970.545;142;   7.854; 106.788;;; 206.468; 130.358;  23.551;  -0.072;  -0.349;   7.854;   7.847;  -7.800;   0.920;  -0.010;;;;;;;;;;;;;;;;;;
2010-12-20T12:01:05.548Z;0;7.5270e+00;0;     0.204;   806.484;  24649.379; 0;  24636.182;  24649.379;  25042.725;  24236.240;142;   7.841; 107.593;;; 207.266; 131.171;  23.558;  -0.072;  -0.350;   7.841;   7.834;  -7.789;   0.906;  -0.010;;;;;;;;;;;;;;;;;;
2010-12-20T12:02:09.548Z;0;1.0780e+01;0;     0.176;   809.900;  29493.359; 0;  29482.236;  29493.359;  29889.969;  29080.068;142;   7.833; 108.129;;; 207.800; 131.708;  23.562;  -0.072;  -0.350;   7.833;   7.825;  -7.781;   0.896;  -0.010;;;;;;;;;;;;;;;;;;
2010-12-20T12:02:25.548Z;0;9.1700e+00;0;     0.179;   809.900;  27205.377; 0;  27193.318;  27205.377;  27601.283;  26791.385;142;   7.831; 108.263;;; 207.933; 131.842;  23.563;  -0.072;  -0.350;   7.831;   7.823;  -7.779;   0.894;  -0.010;;;;;;;;;;;;;;;;;;
2010-12-20T12:04:01.922Z;0;8.6640e+00;0;     0.192;   891.408;  26447.271; 0;  26432.244;  26447.271;  26881.707;  25990.299;142;   7.818; 109.071;;; 208.736; 132.648;  23.569;  -0.072;  -0.351;   7.818;   7.810;  -7.768;   0.879;  -0.010;;;;;;;;;;;;;;;;;;
2010-12-20T12:04:49.547Z;0;8.2830e+00;0;     0.198;   891.408;  25860.410; 0;  25845.043;  25860.410;  26294.590;  25403.182;142;   7.811; 109.470;;; 209.132; 133.045;  23.573;  -0.072;  -0.351;   7.811;   7.803;  -7.762;   0.872;  -0.010;;;;;;;;;;;;;;;;;;
2010-12-20T12:05:05.547Z;0;7.9140e+00;0;     0.197;   867.160;  25277.037; 0;  25262.158;  25277.037;  25699.459;  24832.299;142;   7.809; 109.604;;; 209.265; 133.178;  23.574;  -0.072;  -0.351;   7.809;   7.801;  -7.760;   0.869;  -0.010;;;;;;;;;;;;;;;;;;
2010-12-20T12:05:21.547Z;0;8.7730e+00;0;     0.161;   867.160;  26612.096; 0;  26597.963;  26612.096;  27035.078;  26167.918;142;   7.807; 109.738;;; 209.399; 133.311;  23.575;  -0.072;  -0.351;   7.807;   7.799;  -7.759;   0.867;  -0.010;;;;;;;;;;;;;;;;;;
2010-12-20T12:06:57.546Z;0;1.1630e+01;0;     0.182;   841.680;  30633.197; 0;  30621.633;  30633.197;  31045.363;  30203.684;142;   7.794; 110.542;;; 210.198; 134.108;  23.581;  -0.072;  -0.351;   7.794;   7.786;  -7.747;   0.853;  -0.010;;;;;;;;;;;;;;;;;;
2010-12-20T12:07:13.546Z;0;1.1510e+01;0;     0.165;   843.864;  30472.867; 0;  30461.182;  30472.867;  30886.035;  30042.170;142;   7.792; 110.676;;; 210.331; 134.241;  23.582;  -0.072;  -0.351;   7.792;   7.784;  -7.745;   0.850;  -0.010;;;;;;;;;;;;;;;;;;
2010-12-20T12:07:29.546Z;0;1.0680e+01;0;     0.153;   843.864;  29359.834; 0;  29347.705;  29359.834;  29772.670;  28928.805;142;   7.789; 110.810;;; 210.464; 134.373;  23.583;  -0.072;  -0.351;   7.789;   7.782;  -7.743;   0.848;  -0.010;;;;;;;;;;;;;;;;;;
2010-12-20T12:07:45.546Z;0;1.0750e+01;0;     0.158;   843.864;  29451.051; 0;  29438.959;  29451.051;  29863.914;  29020.051;142;   7.787; 110.944;;; 210.597; 134.506;  23.584;  -0.072;  -0.352;   7.787;   7.779;  -7.741;   0.845;  -0.010;;;;;;;;;;;;;;;;;;
2010-12-20T12:08:01.546Z;0;1.0700e+01;0;     0.195;   859.936;  29384.523; 0;  29371.938;  29384.523;  29805.053;  28945.117;142;   7.785; 111.078;;; 210.730; 134.638;  23.586;  -0.072;  -0.352;   7.785;   7.777;  -7.739;   0.843;  -0.010;;;;;;;;;;;;;;;;;;
2010-12-20T12:08:17.546Z;0;1.0550e+01;0;     0.171;   859.936;  29182.234; 0;  29169.561;  29182.234;  29602.697;  28742.762;142;   7.783; 111.212;;; 210.863; 134.771;  23.587;  -0.072;  -0.352;   7.783;   7.775;  -7.737;   0.840;  -0.010;;;;;;;;;;;;;;;;;;
2010-12-20T12:08:33.546Z;0;1.0370e+01;0;     0.090;   859.936;  28930.586; 0;  28917.803;  28930.586;  29350.967;  28491.031;142;   7.781; 111.346;;; 210.997; 134.903;  23.588;  -0.072;  -0.352;   7.781;   7.773;  -7.736;   0.838;  -0.010;;;;;;;;;;;;;;;;;;
2010-12-20T12:08:49.545Z;0;1.0940e+01;0;     0.158;   859.936;  29717.902; 0;  29705.457;  29717.902;  30138.537;  29278.602;142;   7.779; 111.480;;; 211.130; 135.035;  23.589;  -0.072;  -0.352;   7.779;   7.771;  -7.734;   0.836;  -0.010;;;;;;;;;;;;;;;;;;
2010-12-20T12:09:05.545Z;0;1.0870e+01;0;     0.145;   884.884;  29624.092; 0;  29610.873;  29624.092;  30056.621;  29171.736;142;   7.776; 111.614;;; 211.263; 135.167;  23.590;  -0.072;  -0.352;   7.776;   7.769;  -7.732;   0.833;  -0.010;;;;;;;;;;;;;;;;;;
2010-12-20T12:09:21.545Z;0;9.5820e+00;0;     0.175;   884.884;  27811.232; 0;  27797.152;  27811.232;  28243.115;  27358.230;142;   7.774; 111.748;;; 211.396; 135.299;  23.591;  -0.072;  -0.352;   7.774;   7.766;  -7.730;   0.831;  -0.010;;;;;;;;;;;;;;;;;;
2010-12-20T12:09:37.545Z;0;1.0730e+01;0;     0.170;   884.884;  29425.057; 0;  29411.748;  29425.057;  29857.518;  28972.635;142;   7.772; 111.882;;; 211.529; 135.431;  23.592;  -0.072;  -0.352;   7.772;   7.764;  -7.728;   0.828;  -0.010;;;;;;;;;;;;;;;;;;
2010-12-20T12:09:53.545Z;0;9.7580e+00;0;     0.183;   884.884;  28066.092; 0;  28052.139;  28066.092;  28498.070;  27613.186;142;   7.770; 112.015;;; 211.662; 135.563;  23.593;  -0.072;  -0.352;   7.770;   7.762;  -7.726;   0.826;  -0.010;;;;;;;;;;;;;;;;;;
2010-12-20T12:10:09.545Z;0;9.1770e+00;0;     0.233;   895.888;  27218.070; 0;  27203.322;  27218.070;  27654.953;  26759.066;142;   7.768; 112.149;;; 211.795; 135.696;  23.594;  -0.072;  -0.352;   7.768;   7.760;  -7.724;   0.823;  -0.010;;;;;;;;;;;;;;;;;;
2010-12-20T12:10:25.545Z;0;9.5230e+00;0;     0.209;   895.888;  27725.975; 0;  27711.496;  27725.975;  28163.061;  27267.174;142;   7.766; 112.283;;; 211.928; 135.830;  23.595;  -0.072;  -0.352;   7.766;   7.758;  -7.722;   0.821;  -0.010;;;;;;;;;;;;;;;;;;
2010-12-20T12:10:57.545Z;0;1.0020e+01;0;     0.197;   895.888;  28441.557; 0;  28427.443;  28441.557;  28878.916;  27983.027;142;   7.761; 112.551;;; 212.194; 136.099;  23.597;  -0.072;  -0.352;   7.761;   7.753;  -7.718;   0.816;  -0.010;;;;;;;;;;;;;;;;;;
2010-12-20T12:11:13.545Z;0;1.0800e+01;0;     0.186;   881.916;  29528.439; 0;  29515.266;  29528.439;  29959.518;  29077.602;142;   7.759; 112.685;;; 212.327; 136.234;  23.599;  -0.072;  -0.352;   7.759;   7.751;  -7.716;   0.814;  -0.010;;;;;;;;;;;;;;;;;;
2010-12-20T12:11:29.544Z;0;6.5750e+00;0;     0.164;   881.916;  23043.943; 0;  23027.061;  23043.943;  23472.240;  22590.324;142;   7.757; 112.818;;; 212.460; 136.369;  23.600;  -0.072;  -0.353;   7.757;   7.749;  -7.714;   0.811;  -0.010;;;;;;;;;;;;;;;;;;
2010-12-20T12:11:45.544Z;0;6.5140e+00;0;     0.153;   881.916;  22937.014; 0;  22920.053;  22937.014;  23365.252;  22483.336;142;   7.755; 112.952;;; 212.593; 136.504;  23.601;  -0.072;  -0.353;   7.755;   7.747;  -7.713;   0.809;  -0.010;;;;;;;;;;;;;;;;;;
2010-12-20T12:12:01.544Z;0;6.4690e+00;0;     0.176;   870.996;  22857.100; 0;  22840.498;  22857.100;  23280.148;  22409.152;142;   7.753; 113.086;;; 212.726; 136.638;  23.602;  -0.072;  -0.353;   7.753;   7.745;  -7.711;   0.806;  -0.010;;;;;;;;;;;;;;;;;;
2010-12-20T12:12:17.544Z;0;1.0790e+01;0;     0.182;   870.996;  29515.131; 0;  29502.277;  29515.131;  29940.988;  29069.992;142;   7.750; 113.220;;; 212.859; 136.773;  23.603;  -0.072;  -0.353;   7.750;   7.743;  -7.709;   0.804;  -0.010;;;;;;;;;;;;;;;;;;
2010-12-20T12:12:33.544Z;0;1.1610e+01;0;     0.173;   870.996;  30605.539; 0;  30593.143;  30605.539;  31031.740;  30160.744;142;   7.748; 113.354;;; 212.992; 136.908;  23.604;  -0.072;  -0.353;   7.748;   7.740;  -7.707;   0.802;  -0.010;;;;;;;;;;;;;;;;;;
2010-12-20T12:12:49.544Z;0;1.1970e+01;0;     0.168;   870.996;  31083.479; 0;  31071.273;  31083.479;  31509.822;  30638.826;142;   7.746; 113.487;;; 213.125; 137.043;  23.605;  -0.072;  -0.353;   7.746;   7.738;  -7.705;   0.799;  -0.010;;;;;;;;;;;;;;;;;;
2010-12-20T12:13:22.509Z;0;1.0530e+01;0;     0.154;   886.480;  29159.629; 0;  29146.150;  29159.629;  29592.762;  28706.281;142;   7.742; 113.763;;; 213.399; 137.322;  23.607;  -0.072;  -0.353;   7.742;   7.734;  -7.701;   0.794;  -0.010;;;;;;;;;;;;;;;;;;
2010-12-20T12:13:38.509Z;0;9.6780e+00;0;     0.071;   889.084;  27950.316; 0;  27936.172;  27950.316;  28384.250;  27495.166;142;   7.739; 113.897;;; 213.532; 137.457;  23.608;  -0.072;  -0.353;   7.739;   7.732;  -7.699;   0.792;  -0.010;;;;;;;;;;;;;;;;;;
2010-12-20T12:14:26.509Z;0;1.0550e+01;0;     0.074;   889.084;  29176.037; 0;  29162.488;  29176.037;  29610.418;  28721.334;142;   7.733; 114.298;;; 213.931; 137.863;  23.612;  -0.071;  -0.353;   7.733;   7.725;  -7.693;   0.784;  -0.010;;;;;;;;;;;;;;;;;;
2010-12-20T12:14:42.509Z;0;9.7770e+00;0;     0.190;   889.084;  28092.299; 0;  28078.227;  28092.299;  28526.287;  27637.203;142;   7.731; 114.432;;; 214.064; 137.998;  23.613;  -0.071;  -0.353;   7.731;   7.723;  -7.691;   0.782;  -0.010;;;;;;;;;;;;;;;;;;
2010-12-20T12:14:58.509Z;0;1.0560e+01;0;     0.179;   889.084;  29197.320; 0;  29183.781;  29197.320;  29631.709;  28742.623;142;   7.729; 114.565;;; 214.196; 138.134;  23.614;  -0.071;  -0.353;   7.729;   7.721;  -7.689;   0.780;  -0.010;;;;;;;;;;;;;;;;;;
2010-12-20T12:15:14.508Z;0;1.0900e+01;0;     0.173;   889.084;  29663.201; 0;  29649.875;  29663.201;  30097.748;  29208.664;142;   7.726; 114.699;;; 214.329; 138.269;  23.615;  -0.071;  -0.354;   7.726;   7.719;  -7.687;   0.777;  -0.010;;;;;;;;;;;;;;;;;;
2010-12-20T12:15:30.508Z;0;1.0750e+01;0;     0.169;   908.992;  29463.564; 0;  29449.539;  29463.564;  29907.543;  28998.551;142;   7.724; 114.833;;; 214.462; 138.405;  23.616;  -0.071;  -0.354;   7.724;   7.716;  -7.685;   0.775;  -0.010;;;;;;;;;;;;;;;;;;
2010-12-20T12:15:46.508Z;0;1.0760e+01;0;     0.179;   908.992;  29466.201; 0;  29452.178;  29466.201;  29910.180;  29001.188;142;   7.722; 114.966;;; 214.595; 138.541;  23.617;  -0.071;  -0.354;   7.722;   7.714;  -7.683;   0.772;  -0.010;;;;;;;;;;;;;;;;;;
2010-12-20T12:16:02.508Z;0;1.1660e+01;0;     0.198;   908.992;  30682.377; 0;  30668.908;  30682.377;  31126.773;  30217.781;142;   7.720; 115.100;;; 214.728; 138.676;  23.618;  -0.071;  -0.354;   7.720;   7.712;  -7.681;   0.770;  -0.010;;;;;;;;;;;;;;;;;;
2010-12-20T12:16:18.508Z;0;1.0700e+01;0;     0.171;   908.992;  29383.643; 0;  29369.580;  29383.643;  29827.592;  28918.600;142;   7.718; 115.234;;; 214.861; 138.812;  23.619;  -0.071;  -0.354;   7.718;   7.710;  -7.680;   0.767;  -0.010;;;;;;;;;;;;;;;;;;
2010-12-20T12:16:34.508Z;0;1.0680e+01;0;     0.176;   908.992;  29366.346; 0;  29352.273;  29366.346;  29810.289;  28901.297;142;   7.716; 115.367;;; 214.994; 138.948;  23.621;  -0.071;  -0.354;   7.716;   7.708;  -7.678;   0.765;  -0.010;;;;;;;;;;;;;;;;;;
2010-12-20T12:16:50.508Z;0;1.0840e+01;0;     0.186;   908.992;  29575.789; 0;  29561.816;  29575.789;  30019.807;  29110.814;142;   7.713; 115.501;;; 215.126; 139.084;  23.622;  -0.071;  -0.354;   7.713;   7.706;  -7.676;   0.763;  -0.010;;;;;;;;;;;;;;;;;;
2010-12-20T12:17:06.508Z;0;1.0710e+01;0;     0.191;   908.992;  29400.070; 0;  29386.016;  29400.070;  29844.025;  28935.033;142;   7.711; 115.635;;; 215.259; 139.220;  23.623;  -0.071;  -0.354;   7.711;   7.703;  -7.674;   0.760;  -0.010;;;;;;;;;;;;;;;;;;
2010-12-20T12:17:22.508Z;0;1.1840e+01;0;     0.161;   908.992;  30909.402; 0;  30896.033;  30909.402;  31353.873;  30444.881;142;   7.709; 115.768;;; 215.392; 139.356;  23.624;  -0.071;  -0.354;   7.709;   7.701;  -7.672;   0.758;  -0.010;;;;;;;;;;;;;;;;;;
2010-12-20T12:17:38.507Z;0;1.1640e+01;0;     0.161;   928.256;  30652.119; 0;  30638.061;  30652.119;  31105.703;  30177.447;142;   7.707; 115.902;;; 215.525; 139.492;  23.625;  -0.071;  -0.354;   7.707;   7.699;  -7.670;   0.755;  -0.010;;;;;;;;;;;;;;;;;;
2010-12-20T12:17:54.507Z;0;1.0710e+01;0;     0.162;   928.256;  29407.584; 0;  29392.930;  29407.584;  29860.723;  28932.467;142;   7.705; 116.035;;; 215.658; 139.628;  23.626;  -0.071;  -0.354;   7.705;   7.697;  -7.668;   0.753;  -0.010;;;;;;;;;;;;;;;;;;
2010-12-20T12:18:10.507Z;0;1.1050e+01;0;     0.144;   928.256;  29863.014; 0;  29848.584;  29863.014;  30316.320;  29388.064;142;   7.703; 116.169;;; 215.790; 139.765;  23.627;  -0.071;  -0.354;   7.703;   7.695;  -7.666;   0.750;  -0.010;;;;;;;;;;;;;;;;;;
2010-12-20T12:18:26.507Z;0;1.1550e+01;0;     0.157;   928.256;  30526.432; 0;  30512.314;  30526.432;  30979.973;  30051.717;142;   7.700; 116.303;;; 215.923; 139.901;  23.628;  -0.071;  -0.354;   7.700;   7.693;  -7.664;   0.748;  -0.010;;;;;;;;;;;;;;;;;;
2010-12-20T12:18:42.507Z;0;1.0980e+01;0;     0.160;   928.256;  29775.311; 0;  29760.838;  29775.311;  30228.584;  29300.328;142;   7.698; 116.436;;; 216.056; 140.037;  23.629;  -0.071;  -0.354;   7.698;   7.690;  -7.662;   0.746;  -0.010;;;;;;;;;;;;;;;;;;
2010-12-20T12:18:58.507Z;0;9.9490e+00;0;     0.209;   928.256;  28340.619; 0;  28325.414;  28340.619;  28793.344;  27865.088;142;   7.696; 116.570;;; 216.189; 140.174;  23.630;  -0.071;  -0.355;   7.696;   7.688;  -7.660;   0.743;  -0.010;;;;;;;;;;;;;;;;;;
2010-12-20T12:19:30.507Z;0;9.0200e+00;0;     0.189;   918.820;  26985.320; 0;  26969.674;  26985.320;  27432.996;  26514.176;142;   7.692; 116.837;;; 216.454; 140.447;  23.633;  -0.071;  -0.355;   7.692;   7.684;  -7.656;   0.738;  -0.010;;;;;;;;;;;;;;;;;;
2010-12-20T12:19:46.506Z;0;9.2300e+00;0;     0.202;   918.820;  27297.619; 0;  27282.150;  27297.619;  27745.430;  26826.609;142;   7.690; 116.970;;; 216.587; 140.584;  23.634;  -0.071;  -0.355;   7.690;   7.682;  -7.654;   0.736;  -0.010;;;;;;;;;;;;;;;;;;
2010-12-20T12:20:02.506Z;0;9.2180e+00;0;     0.212;   918.820;  27279.580; 0;  27264.102;  27279.580;  27727.383;  26808.562;142;   7.687; 117.104;;; 216.720; 140.720;  23.635;  -0.071;  -0.355;   7.687;   7.680;  -7.652;   0.733;  -0.010;;;;;;;;;;;;;;;;;;
2010-12-20T12:20:18.506Z;0;9.9840e+00;0;     0.193;   918.820;  28389.352; 0;  28374.479;  28389.352;  28837.607;  27918.787;142;   7.685; 117.237;;; 216.854; 140.854;  23.636;  -0.071;  -0.355;   7.685;   7.677;  -7.650;   0.731;  -0.010;;;;;;;;;;;;;;;;;;
2010-12-20T12:20:34.506Z;0;9.6540e+00;0;     0.192;   918.820;  27916.715; 0;  27901.590;  27916.715;  28364.781;  27445.963;142;   7.683; 117.371;;; 216.988; 140.988;  23.637;  -0.071;  -0.355;   7.683;   7.675;  -7.648;   0.729;  -0.010;;;;;;;;;;;;;;;;;;
2010-12-20T12:20:50.506Z;0;9.9930e+00;0;     0.230;   918.820;  28401.518; 0;  28386.650;  28401.518;  28849.779;  27930.959;142;   7.681; 117.504;;; 217.122; 141.122;  23.638;  -0.071;  -0.355;   7.681;   7.673;  -7.646;   0.726;  -0.010;;;;;;;;;;;;;;;;;;
2010-12-20T12:21:06.506Z;0;9.9490e+00;0;     0.221;   918.820;  28340.213; 0;  28325.314;  28340.213;  28788.449;  27869.629;142;   7.679; 117.638;;; 217.256; 141.255;  23.639;  -0.071;  -0.355;   7.679;   7.671;  -7.645;   0.724;  -0.010;;;;;;;;;;;;;;;;;;
2010-12-20T12:21:22.506Z;0;9.9950e+00;0;     0.174;   918.820;  28404.842; 0;  28389.977;  28404.842;  28853.104;  27934.283;142;   7.676; 117.771;;; 217.391; 141.389;  23.640;  -0.071;  -0.355;   7.677;   7.669;  -7.643;   0.721;  -0.010;;;;;;;;;;;;;;;;;;
2010-12-20T12:21:38.506Z;0;9.8420e+00;0;     0.187;   935.788;  28187.402; 0;  28171.865;  28187.402;  28643.645;  27707.855;142;   7.674; 117.905;;; 217.525; 141.523;  23.642;  -0.071;  -0.355;   7.674;   7.667;  -7.641;   0.719;  -0.010;;;;;;;;;;;;;;;;;;
2010-12-20T12:21:54.506Z;0;9.8680e+00;0;     0.183;   935.788;  28224.154; 0;  28208.637;  28224.154;  28680.410;  27744.623;142;   7.672; 118.038;;; 217.660; 141.656;  23.643;  -0.071;  -0.355;   7.672;   7.664;  -7.639;   0.716;  -0.010;;;;;;;;;;;;;;;;;;
2010-12-20T12:22:26.505Z;0;9.8500e+00;0;     0.191;   935.788;  28199.703; 0;  28184.172;  28199.703;  28655.949;  27720.162;142;   7.668; 118.305;;; 217.929; 141.923;  23.645;  -0.071;  -0.356;   7.668;   7.660;  -7.635;   0.712;  -0.010;;;;;;;;;;;;;;;;;;
2010-12-20T12:22:42.505Z;0;1.0000e+01;0;     0.143;   935.788;  28412.482; 0;  28397.068;  28412.482;  28868.816;  27933.027;142;   7.666; 118.439;;; 218.063; 142.056;  23.646;  -0.071;  -0.356;   7.666;   7.658;  -7.633;   0.709;  -0.010;;;;;;;;;;;;;;;;;;
2010-12-20T12:22:58.505Z;0;9.7780e+00;0;     0.107;   935.788;  28096.154; 0;  28080.566;  28096.154;  28552.357;  27616.570;142;   7.663; 118.572;;; 218.198; 142.189;  23.647;  -0.071;  -0.356;   7.663;   7.656;  -7.631;   0.707;  -0.010;;;;;;;;;;;;;;;;;;
2010-12-20T12:23:30.505Z;0;9.7640e+00;0;     0.148;   904.708;  28074.031; 0;  28059.449;  28074.031;  28515.449;  27610.742;142;   7.659; 118.839;;; 218.468; 142.455;  23.649;  -0.071;  -0.356;   7.659;   7.651;  -7.627;   0.702;  -0.010;;;;;;;;;;;;;;;;;;
2010-12-20T12:24:02.880Z;0;1.1180e+01;0;     0.195;   904.708;  30040.645; 0;  30027.018;  30040.645;  30482.779;  29578.072;142;   7.655; 119.109;;; 218.741; 142.724;  23.652;  -0.071;  -0.356;   7.655;   7.647;  -7.623;   0.697;  -0.010;;;;;;;;;;;;;;;;;;